Weather History for Les Eplatures, Switzerland

Change the Weather History Date:

Friday, December 27, 2013

  Actual Average Record
Temperature  
Mean Temperature 27 °F -  
Max Temperature 37 °F - - ()
Min Temperature 17 °F - - ()
Degree Days  
Heating Degree Days 38    
Moisture  
Dew Point 28 °F    
Average Humidity 91    
Maximum Humidity 100    
Minimum Humidity 70    
Precipitation  
Precipitation 0.00 in - - ()
Sea Level Pressure  
Sea Level Pressure 29.75 in    
Wind  
Wind Speed 1 mph ()    
Max Wind Speed 5 mph    
Max Gust Speed -    
Visibility 4.7 miles    
Events Fog    
T = Trace of Precipitation, MM = Missing Value Source: Averaged Metar Reports

Daily Weather History Graph

Daily Weather History Graph

Search for Another Location

Airport:

Trip Planner

Search our weather history database for the weather conditions in past years. The results will help you decide how hot, cold, wet, or windy it might be!

Date:

Astronomy

Dec. 27, 2013 Rise Set
Actual Time 8:18 AM CET 4:49 PM CET
Civil Twilight 7:42 AM CET 5:25 PM CET
Nautical Twilight 7:03 AM CET 6:04 PM CET
Astronomical Twilight 6:26 AM CET 6:41 PM CET
Moon 2:18 AM CET 1:03 PM CET
Length of Visible Light 9h 42m
Length of Day
8h 31m
Waning Crescent, 31% of the Moon is Illuminated
Dec 27
Waning Crescent
Jan 1
New
Jan 8
First Quarter
Jan 16
Full
Jan 24
Last Quarter

Hourly Weather History & Observations

Time (CET) Temp. Windchill Dew Point Humidity Pressure Visibility Wind Dir Wind Speed Gust Speed Precip Events Conditions
12:20 AM 30.2 °F - 28.4 °F 93% 29.77 in 6.2 mi Calm Calm - N/A   Mostly Cloudy
12:50 AM 28.4 °F - 28.4 °F 100% 29.77 in 6.2 mi Variable 1.2 mph - N/A   Mostly Cloudy
1:20 AM 28.4 °F - 28.4 °F 100% 29.77 in 6.2 mi Variable 1.2 mph - N/A   Overcast
1:50 AM 26.6 °F - 26.6 °F 100% 29.77 in 6.2 mi Variable 1.2 mph - N/A   Unknown
2:20 AM 24.8 °F - 24.8 °F 100% 29.77 in 1.5 mi Variable 1.2 mph - N/A   Mist
2:50 AM 19.4 °F - 17.6 °F 93% 29.77 in 0.1 mi Calm Calm - N/A Fog Light Freezing Fog
3:20 AM 24.8 °F - 24.8 °F 100% 29.77 in - Variable 1.2 mph - N/A   Clear
3:50 AM 21.2 °F - 21.2 °F 100% 29.77 in - Variable 1.2 mph - N/A   Clear
4:20 AM 19.4 °F - 17.6 °F 93% 29.77 in - Variable 1.2 mph - N/A   Clear
4:50 AM 17.6 °F - 15.8 °F 93% 29.77 in - Variable 1.2 mph - N/A   Clear
5:20 AM 21.2 °F - 19.4 °F 93% 29.77 in - Variable 2.3 mph - N/A   Clear
5:50 AM 23.0 °F - 21.2 °F 93% 29.77 in - Variable 2.3 mph - N/A   Clear
6:20 AM 24.8 °F - 23.0 °F 93% 29.77 in - Variable 1.2 mph - N/A   Clear
6:50 AM 23.0 °F - 21.2 °F 93% 29.74 in - Variable 2.3 mph - N/A   Clear
7:20 AM 28.4 °F 23.3 °F 23.0 °F 80% 29.74 in - West 4.6 mph - N/A   Clear
7:50 AM 30.2 °F 26.7 °F 24.8 °F 80% 29.74 in - Variable 3.5 mph - N/A   Clear
8:20 AM 28.4 °F - 23.0 °F 80% 29.74 in - Variable 2.3 mph - N/A   Clear
8:50 AM 28.4 °F 24.6 °F 23.0 °F 80% 29.77 in - Variable 3.5 mph - N/A   Clear
9:20 AM 30.2 °F - 24.8 °F 80% 29.77 in - Variable 2.3 mph - N/A   Clear
9:50 AM 30.2 °F - 26.6 °F 86% 29.74 in - Variable 1.2 mph - N/A   Clear
10:20 AM 30.2 °F - 26.6 °F 86% 29.74 in - Variable 1.2 mph - N/A   Clear
10:50 AM 33.8 °F - 26.6 °F 75% 29.74 in - Variable 2.3 mph - N/A   Clear
11:20 AM 35.6 °F - 26.6 °F 70% 29.74 in - Variable 2.3 mph - N/A   Clear
11:50 AM 33.8 °F 30.8 °F 26.6 °F 75% 29.74 in - Variable 3.5 mph - N/A   Clear
12:20 PM 33.8 °F 30.8 °F 28.4 °F 81% 29.74 in - Variable 3.5 mph - N/A   Clear
12:50 PM 35.6 °F 32.8 °F 26.6 °F 70% 29.74 in - Variable 3.5 mph - N/A   Clear
1:20 PM 33.8 °F - 30.2 °F 87% 29.74 in - Variable 1.2 mph - N/A   Clear
1:50 PM 35.6 °F - 28.4 °F 75% 29.74 in - Variable 2.3 mph - N/A   Clear
2:20 PM 37.4 °F - 32.0 °F 81% 29.74 in - Calm Calm - N/A   Clear
2:50 PM 35.6 °F - 32.0 °F 87% 29.74 in - Variable 2.3 mph - N/A   Clear
3:20 PM 35.6 °F - 32.0 °F 87% 29.74 in - Variable 2.3 mph - N/A   Clear
3:50 PM 35.6 °F - 32.0 °F 87% 29.74 in - Variable 1.2 mph - N/A   Clear
4:20 PM 33.8 °F - 33.8 °F 100% 29.74 in - Variable 1.2 mph - N/A   Clear
4:50 PM 33.8 °F - 32.0 °F 93% 29.77 in 6.2 mi Variable 2.3 mph - N/A   Scattered Clouds
5:20 PM 33.8 °F - 32.0 °F 93% 29.74 in 6.2 mi Variable 1.2 mph - N/A   Mostly Cloudy
5:50 PM 33.8 °F - 32.0 °F 93% 29.74 in 6.2 mi Variable 1.2 mph - N/A   Unknown
6:20 PM 33.8 °F - 33.8 °F 100% 29.74 in 6.2 mi Variable 1.2 mph - N/A   Unknown
6:50 PM 33.8 °F - 33.8 °F 100% 29.77 in 6.2 mi Variable 1.2 mph - N/A   Unknown
7:20 PM 32.0 °F - 32.0 °F 100% 29.77 in 0.6 mi Variable 1.2 mph - N/A Fog Light Freezing Fog
7:50 PM 28.4 °F - 28.4 °F 100% 29.77 in - Calm Calm - N/A Fog Light Freezing Fog
8:20 PM 32.0 °F 28.7 °F 32.0 °F 100% 29.74 in 6.2 mi NE 3.5 mph - N/A   Unknown
8:50 PM 30.2 °F - 30.2 °F 100% 29.74 in - Calm Calm - N/A Fog Light Freezing Fog
9:20 PM 30.2 °F - 30.2 °F 100% 29.74 in 0.2 mi Calm Calm - N/A Fog Light Freezing Fog
9:50 PM 30.2 °F - 30.2 °F 100% 29.74 in - Variable 1.2 mph - N/A   Mist
10:20 PM 33.8 °F - 33.8 °F 100% 29.74 in 6.2 mi Variable 2.3 mph - N/A   Unknown
10:50 PM 35.6 °F 32.8 °F 35.6 °F 100% 29.74 in - Variable 3.5 mph - N/A   Clear
11:20 PM 35.6 °F - 35.6 °F 100% 29.71 in - Variable 1.2 mph - N/A   Clear
11:50 PM 35.6 °F - 33.8 °F 93% 29.71 in - Variable 2.3 mph - N/A   Clear